Greenville, MS

11:57 PM CST on December 12, 2017 (GMT -0600)
Mid Delta Regional

Weather History for KGLH - June, 2013

Change the Weather History Date:

Tuesday, June 4, 2013

  Actual Average Record
Temperature  
Mean Temperature 76 °F 77 °F  
Max Temperature 89 °F 87 °F 102 °F (1985)
Min Temperature 62 °F 67 °F 53 °F (1954)
Degree Days  
Heating Degree Days 0 0  
Month to date heating degree days 0 0  
Since 1 June heating degree days 0 0  
Since 1 July heating degree days 2695 2774  
Cooling Degree Days 11 12  
Month to date cooling degree days 41 46  
Year to date cooling degree days 324 368  
Since 1 June cooling degree days 41 46  
Growing Degree Days 26 (Base 50)    
Moisture  
Dew Point 66 °F    
Average Humidity 74    
Maximum Humidity 100    
Minimum Humidity 47    
Precipitation  
Precipitation 0.00 in 0.10 in 2.08 in (2012)
Month to date precipitation 1.14 0.40  
Year to date precipitation 25.65 24.66  
Sea Level Pressure  
Sea Level Pressure 29.95 in    
Wind  
Wind Speed 3 mph (NE)    
Max Wind Speed 8 mph    
Max Gust Speed 16 mph    
Visibility 9 miles    
Events      
T = Trace of Precipitation, MM = Missing Value Source: NWS Daily Summary

Daily Weather History Graph

Daily Weather History Graph

Search for Another Location

Airport or City:

Trip Planner

Search our weather history database for the weather conditions in past years. The results will help you decide how hot, cold, wet, or windy it might be!

Date:

Astronomy

Jun. 04, 2013 Rise Set
Actual Time 5:54 AM CDT 8:10 PM CDT
Civil Twilight 5:25 AM CDT 8:39 PM CDT
Nautical Twilight 4:50 AM CDT 9:14 PM CDT
Astronomical Twilight 4:12 AM CDT 9:52 PM CDT
Moon 3:14 AM CDT (6/4) 4:48 PM CDT (6/4)
Length of Visible Light 15h 13m
Length of Day
14h 16m
Waning Crescent, 14% of the Moon is Illuminated
Jun 4
Waning Crescent
Jun 8
New
Jun 16
First Quarter
Jun 23
Full
Jun 29
Last Quarter

Hourly Weather History & Observations

Time (CDT) Temp. Heat Index Dew Point Humidity Pressure Visibility Wind Dir Wind Speed Gust Speed Precip Events Conditions
12:53 AM 64.9 °F - 64.0 °F 97% 29.97 in 10.0 mi Calm Calm - N/A   Clear
1:53 AM 64.0 °F - 63.0 °F 96% 29.97 in 10.0 mi North 3.5 mph - N/A   Clear
2:53 AM 64.9 °F - 62.1 °F 90% 29.97 in 10.0 mi North 4.6 mph - N/A   Clear
3:53 AM 63.0 °F - 61.0 °F 93% 29.96 in 9.0 mi Calm Calm - N/A   Clear
4:53 AM 63.0 °F - 61.0 °F 93% 29.95 in 8.0 mi Calm Calm - N/A   Clear
5:53 AM 63.0 °F - 61.0 °F 93% 29.96 in 5.0 mi Calm Calm - N/A   Clear
6:53 AM 66.0 °F - 64.0 °F 93% 29.96 in 6.0 mi Calm Calm - N/A   Clear
7:28 AM 69.8 °F - 64.4 °F 83% 29.96 in 8.0 mi NNE 4.6 mph - N/A   Partly Cloudy
7:53 AM 70.0 °F - 66.0 °F 87% 29.98 in 9.0 mi NNE 4.6 mph - N/A   Partly Cloudy
8:53 AM 75.0 °F - 66.9 °F 76% 29.99 in 10.0 mi Variable 4.6 mph - N/A   Clear
9:53 AM 78.1 °F - 64.9 °F 64% 29.99 in 10.0 mi ESE 4.6 mph - N/A   Clear
10:53 AM 81.0 °F 83.3 °F 66.9 °F 62% 29.99 in 10.0 mi Calm Calm - N/A   Scattered Clouds
11:53 AM 84.0 °F 87.0 °F 68.0 °F 58% 30.00 in 10.0 mi Variable 5.8 mph - N/A   Partly Cloudy
12:53 PM 84.0 °F 87.8 °F 69.1 °F 61% 29.99 in 10.0 mi Variable 3.5 mph - N/A   Scattered Clouds
1:53 PM 84.0 °F 87.0 °F 68.0 °F 58% 29.96 in 10.0 mi Calm Calm - N/A   Mostly Cloudy
2:53 PM 87.1 °F 91.3 °F 69.1 °F 55% 29.93 in 10.0 mi Variable 3.5 mph - N/A   Clear
3:53 PM 88.0 °F 90.7 °F 66.9 °F 49% 29.91 in 10.0 mi ESE 5.8 mph - N/A   Partly Cloudy
4:53 PM 89.1 °F 92.1 °F 66.9 °F 48% 29.90 in 10.0 mi ESE 6.9 mph - N/A   Scattered Clouds
5:53 PM 88.0 °F 90.7 °F 66.9 °F 49% 29.89 in 10.0 mi Calm Calm - N/A   Partly Cloudy
6:53 PM 87.1 °F 91.3 °F 69.1 °F 55% 29.89 in 10.0 mi Calm Calm - N/A   Clear
7:53 PM 82.0 °F 86.3 °F 71.1 °F 69% 29.90 in 10.0 mi East 4.6 mph - N/A   Clear
8:53 PM 77.0 °F - 71.1 °F 82% 29.91 in 10.0 mi East 3.5 mph - N/A   Clear
9:53 PM 75.9 °F - 71.1 °F 85% 29.93 in 10.0 mi North 4.6 mph - N/A   Mostly Cloudy
10:53 PM 75.9 °F - 68.0 °F 76% 29.94 in 10.0 mi NNE 5.8 mph - N/A   Clear
11:53 PM 73.9 °F - 69.1 °F 85% 29.94 in 10.0 mi North 4.6 mph - N/A   Clear